Temp
78 83 84 80 68 67 62 63 70 68 69 76 76 74 73 76 73 69 85 84 81 83 84 80 74 76 76 76 75 75 75 76 77 77 77 77 76 76 76 76 76 77 78 78 78 77 77 76 76
81 81 82 76 63 59 65 68 65 72 76 76 77 75 75 74 81 84 89 84 82 83 84 83 72 75 76 75 75 75 75 76 76 77 76 76 76 76 76 76 76 76 78 78 78 77 76 75 74
78 79 74 69 63 59 63 68 72 74 75 74 74 78 77 77 84 87 87 86 83 83 84 83 72 74 75 75 75 74 75 75 76 76 76 76 76 76 76 75 75 76 77 77 77 77 75 74 74
79 79 75 62 59 65 67 72 72 72 76 74 75 73 79 86 84 85 88 87 85 84 84 79 72 74 75 75 74 74 74 75 75 76 76 76 76 75 75 75 75 75 76 77 77 76 75 74 73
79 74 63 58 60 66 70 71 72 69 72 72 73 71 74 85 87 85 86 87 83 83 83 82 71 73 74 74 74 74 74 74 75 75 75 75 75 75 75 74 74 75 76 77 77 75 74 73 73
69 70 58 57 63 67 68 70 71 71 73 72 70 71 74 81 81 83 86 86 85 82 79 80 70 68 71 73 73 73 74 74 74 74 74 74 74 74 74 74 74 74 75 76 76 75 73 73 72
65 63 59 58 60 63 66 71 68 68 70 70 75 67 76 79 82 83 84 86 86 84 80 79 79 75 66 69 70 71 72 73 73 73 73 73 72 73 73 73 73 74 75 75 74 74 73 72 71
69 65 56 60 59 58 64 68 70 68 68 75 76 68 69 77 80 82 84 84 86 85 81 80 79 79 79 78 67 67 69 69 70 70 69 68 68 69 69 68 71 73 74 74 74 72 72 71 70
63 57 54 56 57 60 64 61 68 70 68 70 72 72 76 77 78 77 77 79 81 82 83 81 79 78 78 77 73 65 65 66 66 68 65 66 78 78 76 71 69 71 71 72 72 71 70 69 66
61 54 55 58 59 56 58 58 60 61 62 65 67 72 73 73 72 71 72 73 75 77 79 80 80 80 78 78 77 74 73 72 73 76 77 77 79 80 78 71 65 67 68 69 71 70 67 65 70
55 55 55 57 56 56 55 58 60 57 56 57 55 59 64 66 68 68 69 71 71 74 77 78 78 79 79 78 77 76 75 72 73 76 77 78 79 79 78 79 75 76 66 77 73 69 67 67 70
51 53 52 52 53 51 49 53 53 54 49 55 58 59 61 61 63 65 66 68 69 70 72 73 75 76 78 79 78 77 74 76 72 74 73 74 74 74 75 78 77 76 78 72 70 66 62 62 64
50 49 52 53 50 48 50 50 50 48 53 56 56 54 54 57 59 59 56 58 57 57 60 62 64 69 74 76 79 78 74 72 75 73 72 71 71 70 72 72 73 72 71 71 68 63 61 61 63
47 49 49 48 48 46 43 49 51 51 51 51 48 48 51 51 48 52 51 51 52 53 55 57 59 62 64 71 75 78 78 74 73 73 72 71 71 70 69 69 70 70 69 70 68 62 61 60 63
46 44 46 45 44 39 45 46 42 47 50 46 44 44 46 48 49 48 48 48 50 51 53 53 54 57 58 60 66 75 78 77 72 71 72 71 71 70 69 68 68 70 69 69 67 61 60 60 63
40 43 42 42 40 41 42 41 40 45 45 44 45 44 44 46 47 47 47 47 48 49 49 51 52 52 53 54 58 64 75 77 75 71 71 70 70 71 69 67 66 71 70 70 68 66 59 59 63
39 38 32 35 39 37 37 33 40 44 43 42 43 44 44 44 45 46 46 46 46 46 47 47 49 50 49 51 55 59 66 74 77 74 71 70 69 70 69 66 67 69 69 68 67 65 62 58 60
31 31 30 30 34 35 34 32 39 42 43 41 42 43 43 42 42 44 45 45 45 45 45 45 46 47 48 50 53 57 61 71 75 76 75 72 69 69 68 66 65 67 65 65 66 63 60 59 57
28 27 28 32 33 31 30 32 35 40 41 40 40 40 40 41 44 44 44 44 43 44 43 42 42 44 45 45 46 48 50 57 56 74 75 75 74 68 66 66 64 64 63 63 63 59 56 55 54
29 27 28 31 32 31 31 32 36 37 38 39 39 39 39 40 41 42 42 42 42 41 41 41 41 41 42 44 44 46 48 52 55 59 69 74 74 70 65 65 62 61 61 61 60 56 52 52 53
28 26 25 23 29 32 30 31 33 39 39 41 42 42 41 38 38 39 40 40 40 39 39 39 39 40 40 41 43 45 47 50 53 57 62 71 73 70 65 64 62 61 61 59 58 56 55 52 50
26 30 27 25 26 29 31 29 31 35 36 37 39 40 39 38 39 39 38 38 38 38 40 39 39 39 40 40 39 38 39 40 46 50 53 56 70 69 66 65 62 60 60 58 57 57 58 59 50
27 30 27 26 25 24 27 25 33 32 31 32 37 38 38 38 38 37 38 38 39 39 38 38 38 38 38 37 36 36 36 40 43 46 49 54 62 67 64 65 61 60 60 59 58 56 56 58 55
31 26 27 27 26 21 25 25 33 31 24 31 36 37 37 37 37 38 39 39 38 39 38 37 36 36 37 36 34 33 33 35 37 40 43 51 57 65 62 62 61 60 59 58 57 56 56 57 57
31 24 25 22 22 24 25 23 31 29 30 29 31 34 36 37 37 36 36 36 36 36 36 36 35 34 35 34 32 32 33 34 35 37 39 42 49 60 61 61 60 58 58 57 56 55 55 55 54
23 21 24 17 20 22 25 20 31 31 33 33 34 34 36 36 36 36 35 35 35 35 35 35 34 33 34 34 32 31 31 32 33 35 37 40 42 52 61 59 59 58 57 57 55 54 54 54 53
18 19 20 15 13 12 24 25 31 31 30 32 33 35 33 34 35 35 35 35 35 34 34 34 33 33 33 33 34 32 30 30 30 32 35 37 41 44 55 58 57 56 55 55 53 52 51 52 51
24 26 18 18 12 12 22 19 26 26 30 33 33 32 33 34 35 35 35 34 35 34 34 34 34 32 33 32 33 33 31 29 30 31 31 34 37 40 44 53 55 56 54 53 52 51 51 50 49
20 19 17 19 17 14 12 24 30 30 33 32 33 33 34 33 34 34 34 35 34 35 34 34 33 32 32 31 31 31 32 30 29 29 29 31 34 37 39 44 47 48 49 50 50 50 49 48 48
21 21 21 18 12 15 13 16 31 31 33 33 32 34 35 36 35 34 33 33 34 33 33 32 32 31 31 31 31 30 30 31 29 28 28 29 31 33 35 39 44 45 46 47 47 46 46 46 45
MSLP
1015.57 1014.98 1014.52 1013.68 1013.02 1012.07 1011.39 1011.50 1011.51 1011.20 1011.24 1011.32 1011.48 1011.24 1011.13 1010.73 1010.25 1010.04 1010.72 1010.96 1011.27 1011.43 1011.63 1012.35 1012.57 1012.64 1012.91 1013.25 1013.45 1013.58 1013.82 1014.08 1014.33 1014.52 1014.68 1014.86 1015.03 1015.15 1015.29 1015.49 1015.64 1015.77 1015.89 1016.08 1016.30 1016.54 1016.77 1017.09 1017.32
1015.57 1014.90 1014.14 1013.37 1012.60 1011.45 1010.82 1011.24 1011.17 1010.90 1011.04 1011.64 1011.46 1011.36 1010.97 1010.39 1010.58 1010.30 1010.17 1011.24 1011.32 1011.41 1011.75 1012.09 1012.72 1012.77 1012.96 1013.36 1013.60 1013.76 1013.85 1013.99 1014.20 1014.47 1014.73 1014.91 1015.05 1015.23 1015.39 1015.56 1015.72 1015.85 1015.98 1016.20 1016.43 1016.63 1016.90 1017.25 1017.56
1015.72 1015.18 1013.76 1012.99 1012.32 1011.26 1010.78 1011.21 1010.99 1011.26 1011.89 1011.81 1011.49 1011.31 1010.91 1010.29 1010.49 1010.63 1011.49 1011.44 1011.41 1011.36 1011.61 1012.02 1012.74 1012.89 1012.87 1013.06 1013.51 1013.78 1013.94 1014.13 1014.21 1014.37 1014.59 1014.81 1015.01 1015.21 1015.39 1015.57 1015.72 1015.86 1016.03 1016.22 1016.45 1016.71 1017.00 1017.26 1017.46
1015.44 1014.65 1014.22 1013.14 1011.83 1011.54 1011.49 1011.35 1011.76 1011.72 1011.81 1012.33 1011.95 1011.20 1011.20 1011.04 1011.15 1011.99 1011.86 1011.73 1011.74 1011.79 1011.80 1011.88 1012.48 1013.11 1013.41 1013.70 1013.45 1013.52 1013.87 1014.04 1014.20 1014.32 1014.46 1014.66 1014.91 1015.17 1015.37 1015.58 1015.75 1015.89 1016.01 1016.18 1016.41 1016.69 1017.07 1017.39 1017.58
1015.55 1014.67 1013.50 1012.72 1012.00 1012.07 1012.33 1012.51 1012.44 1012.30 1012.27 1012.41 1012.54 1011.73 1011.38 1011.31 1011.99 1012.38 1012.22 1012.01 1012.09 1012.17 1012.44 1012.61 1013.14 1013.09 1013.08 1013.26 1013.61 1013.82 1013.85 1013.90 1014.07 1014.25 1014.44 1014.65 1014.81 1015.01 1015.23 1015.46 1015.67 1015.83 1016.00 1016.13 1016.34 1016.63 1017.01 1017.32 1017.61
1015.13 1015.00 1013.64 1012.37 1011.81 1012.37 1012.97 1013.09 1012.95 1012.75 1012.65 1012.77 1012.72 1012.23 1011.78 1012.47 1012.53 1012.66 1012.43 1012.32 1012.33 1012.36 1012.62 1012.69 1013.13 1013.57 1013.57 1013.63 1013.56 1013.57 1013.72 1013.90 1014.00 1014.09 1014.29 1014.53 1014.83 1015.12 1015.27 1015.40 1015.58 1015.66 1015.78 1016.03 1016.20 1016.64 1016.95 1017.28 1017.59
1015.13 1014.86 1013.64 1013.10 1012.64 1012.92 1013.35 1013.56 1013.42 1013.43 1013.23 1013.27 1013.26 1012.58 1012.19 1012.46 1012.97 1013.00 1012.87 1012.47 1012.32 1012.19 1012.30 1012.42 1012.55 1012.89 1013.49 1013.50 1013.65 1013.86 1013.91 1013.80 1013.96 1014.09 1014.18 1014.37 1014.56 1014.79 1015.12 1015.39 1015.50 1015.65 1015.80 1015.93 1016.21 1016.54 1016.89 1017.19 1017.58
1016.06 1015.54 1014.70 1013.84 1013.49 1013.92 1014.64 1014.45 1014.77 1014.59 1014.25 1014.47 1014.13 1012.88 1012.91 1013.21 1013.42 1013.19 1012.90 1012.58 1012.25 1012.23 1012.54 1012.38 1012.51 1012.60 1012.68 1012.89 1013.28 1013.53 1013.84 1013.99 1013.96 1014.00 1014.14 1014.30 1014.57 1014.73 1014.95 1015.21 1015.46 1015.54 1015.72 1015.92 1016.07 1016.39 1016.72 1017.02 1017.51
1017.21 1016.21 1015.21 1015.11 1014.98 1015.10 1016.04 1015.98 1015.88 1016.26 1015.62 1015.45 1015.24 1014.78 1014.51 1014.65 1014.39 1013.61 1012.92 1012.31 1012.33 1012.29 1012.28 1012.48 1012.46 1012.38 1012.29 1012.42 1012.65 1013.03 1013.34 1013.71 1013.97 1014.08 1014.23 1014.32 1014.18 1014.38 1014.61 1014.80 1015.09 1015.44 1015.68 1015.87 1016.04 1016.30 1016.60 1016.97 1017.49
1017.14 1016.81 1016.25 1016.83 1016.90 1017.21 1017.67 1017.70 1017.57 1017.26 1016.79 1016.31 1015.99 1015.90 1015.71 1015.51 1015.05 1014.47 1013.75 1013.17 1012.77 1012.51 1012.49 1012.51 1012.22 1011.96 1011.97 1011.82 1011.94 1012.27 1012.56 1012.97 1013.29 1013.41 1013.57 1013.98 1013.72 1013.58 1013.86 1014.30 1014.75 1015.16 1015.41 1015.63 1015.84 1016.15 1016.55 1016.97 1017.25
1017.97 1017.49 1017.94 1018.10 1018.72 1018.82 1018.45 1018.39 1018.81 1018.58 1018.34 1018.91 1018.62 1018.15 1017.60 1016.87 1016.16 1015.66 1015.21 1014.69 1014.29 1013.78 1013.22 1012.95 1012.55 1012.02 1011.62 1011.51 1011.42 1011.41 1011.70 1012.11 1012.36 1012.47 1012.69 1012.95 1013.11 1013.30 1013.65 1013.67 1014.38 1014.58 1015.10 1015.05 1015.52 1016.09 1016.44 1016.69 1016.90
1018.89 1019.03 1019.47 1019.74 1020.09 1019.94 1019.88 1020.06 1019.92 1020.26 1021.64 1021.30 1020.53 1020.08 1019.09 1018.08 1017.41 1016.93 1016.40 1015.86 1015.26 1014.78 1014.26 1013.91 1013.24 1012.52 1011.79 1011.29 1011.01 1011.07 1011.00 1011.09 1011.57 1011.65 1012.10 1012.35 1012.56 1012.77 1012.90 1013.00 1013.21 1013.68 1013.84 1014.41 1014.95 1015.64 1016.34 1016.77 1017.09
1019.73 1020.21 1020.51 1020.87 1021.17 1021.61 1021.39 1020.67 1020.82 1021.85 1022.28 1021.86 1021.49 1021.08 1020.36 1019.63 1018.97 1018.71 1018.94 1018.29 1017.82 1016.95 1016.29 1015.74 1014.95 1013.76 1012.56 1011.46 1010.72 1010.48 1010.74 1010.58 1010.46 1010.92 1011.35 1011.79 1011.94 1012.34 1012.57 1012.67 1012.95 1013.20 1013.63 1014.03 1014.60 1015.25 1015.99 1016.54 1016.85
1021.18 1021.19 1021.53 1022.01 1022.21 1022.60 1022.44 1021.20 1021.33 1021.83 1022.70 1022.25 1022.49 1022.15 1021.71 1021.29 1021.26 1020.49 1020.11 1019.68 1019.15 1018.53 1017.62 1016.97 1016.04 1015.15 1014.23 1012.50 1011.18 1010.39 1009.89 1010.13 1010.10 1010.16 1010.49 1010.82 1011.16 1011.44 1011.95 1012.38 1012.53 1012.75 1013.11 1013.58 1014.24 1014.78 1015.61 1016.17 1016.36
1021.94 1021.78 1022.20 1022.98 1023.39 1023.60 1023.05 1022.15 1023.39 1023.86 1023.13 1023.19 1023.39 1023.33 1022.66 1022.28 1021.91 1021.83 1021.67 1021.05 1020.48 1019.64 1018.79 1017.93 1017.06 1016.23 1015.17 1013.90 1012.36 1010.50 1009.60 1009.33 1009.67 1009.68 1009.75 1009.99 1010.31 1010.63 1011.01 1011.35 1011.95 1012.08 1012.42 1012.92 1013.77 1014.41 1015.24 1015.61 1016.05
1022.67 1022.54 1022.64 1023.91 1024.56 1024.52 1023.86 1022.97 1024.48 1024.30 1023.52 1023.26 1023.45 1023.73 1023.64 1023.18 1022.96 1022.70 1022.45 1021.92 1021.29 1020.46 1019.52 1018.62 1017.87 1017.00 1015.96 1014.87 1013.63 1011.87 1009.60 1008.86 1008.70 1008.86 1009.03 1009.25 1009.48 1009.71 1010.28 1010.63 1010.81 1011.13 1011.69 1012.24 1013.01 1013.61 1014.48 1015.09 1015.56
1023.62 1023.53 1024.45 1024.74 1025.83 1026.00 1024.98 1024.76 1025.30 1025.18 1024.68 1024.16 1023.89 1023.83 1023.86 1023.80 1023.65 1023.16 1022.87 1022.36 1021.84 1021.20 1020.25 1019.25 1018.32 1017.29 1016.50 1015.34 1014.12 1012.56 1010.76 1008.95 1008.04 1007.91 1007.96 1008.25 1008.60 1008.92 1009.41 1009.87 1010.22 1010.53 1011.11 1011.65 1012.33 1013.18 1013.52 1014.38 1014.92
1025.30 1025.50 1025.92 1026.07 1026.79 1026.80 1026.01 1025.97 1025.85 1025.53 1025.04 1024.95 1024.65 1024.10 1023.92 1023.84 1023.90 1023.90 1023.40 1022.84 1022.26 1021.54 1020.90 1020.06 1019.04 1017.97 1016.98 1015.75 1014.37 1012.82 1011.17 1008.98 1007.97 1007.44 1007.20 1007.29 1007.65 1007.96 1008.47 1009.04 1009.58 1009.98 1010.41 1011.24 1011.64 1012.26 1013.34 1013.83 1014.31
1027.37 1027.09 1026.85 1026.82 1027.59 1027.33 1026.61 1026.11 1025.99 1025.88 1025.47 1025.24 1025.24 1024.93 1024.33 1024.18 1024.46 1024.35 1023.87 1023.25 1022.55 1021.78 1020.95 1020.29 1019.39 1018.50 1017.50 1016.28 1015.04 1013.80 1012.34 1010.67 1009.64 1007.37 1006.78 1006.42 1006.41 1007.01 1007.66 1008.17 1008.77 1009.34 1009.64 1010.20 1010.92 1011.92 1012.76 1013.58 1014.19
1028.20 1027.91 1027.70 1027.57 1027.64 1027.16 1026.19 1025.78 1025.65 1025.66 1025.75 1025.84 1025.58 1025.44 1025.33 1024.62 1024.07 1023.99 1023.87 1023.44 1022.76 1022.24 1021.46 1020.48 1019.78 1019.07 1018.27 1017.24 1016.40 1015.25 1013.64 1011.71 1010.50 1008.80 1007.13 1005.97 1005.82 1006.16 1006.63 1007.13 1007.62 1008.37 1009.06 1009.45 1010.14 1010.99 1012.38 1013.07 1013.69
1028.69 1028.76 1028.82 1028.60 1027.67 1026.80 1026.15 1024.88 1024.85 1024.95 1024.94 1025.44 1025.38 1025.48 1025.68 1025.57 1025.03 1024.40 1023.90 1023.74 1023.12 1022.44 1021.84 1021.15 1020.25 1019.43 1018.66 1017.85 1016.68 1015.34 1013.98 1012.15 1010.30 1008.57 1007.08 1005.62 1005.17 1005.29 1005.73 1006.25 1006.79 1007.36 1008.12 1008.54 1009.00 1009.77 1010.63 1011.72 1012.86
1029.12 1029.43 1028.97 1028.44 1027.70 1026.45 1026.48 1024.58 1024.17 1024.19 1024.53 1025.32 1025.13 1025.37 1025.61 1025.41 1025.20 1025.23 1024.36 1024.04 1023.44 1022.88 1022.52 1021.74 1020.76 1019.79 1018.93 1018.04 1017.22 1016.30 1014.91 1013.16 1011.74 1010.37 1008.49 1006.88 1005.01 1004.51 1004.76 1005.09 1005.57 1006.14 1006.79 1007.52 1008.16 1008.65 1009.14 1009.86 1011.07
1029.76 1029.53 1028.92 1028.47 1027.78 1027.25 1026.14 1025.34 1023.16 1024.47 1024.68 1025.18 1025.32 1025.48 1025.47 1025.61 1025.55 1025.13 1024.79 1024.40 1023.89 1023.27 1022.65 1021.89 1021.11 1020.23 1019.20 1018.40 1017.74 1016.79 1015.52 1014.16 1012.49 1010.92 1008.84 1006.86 1005.21 1003.75 1003.94 1004.23 1004.60 1004.81 1005.53 1006.05 1006.59 1007.56 1008.19 1008.73 1009.58
1030.29 1029.50 1028.86 1028.39 1027.61 1026.59 1025.80 1025.55 1022.88 1023.97 1025.19 1025.54 1025.63 1025.53 1025.55 1025.55 1025.51 1025.35 1025.00 1024.42 1023.92 1023.35 1022.69 1022.06 1021.34 1020.42 1019.59 1018.72 1017.83 1017.02 1016.02 1014.54 1012.89 1011.23 1009.40 1007.19 1005.22 1003.26 1003.00 1003.36 1003.60 1004.06 1004.49 1004.95 1005.73 1006.21 1006.55 1007.49 1008.26
1029.92 1029.40 1028.39 1027.83 1026.82 1025.67 1025.88 1025.54 1022.89 1024.28 1025.25 1025.75 1025.83 1025.68 1025.58 1025.51 1025.35 1025.08 1024.82 1024.39 1023.94 1023.55 1023.04 1022.24 1021.56 1020.67 1019.92 1019.07 1018.19 1017.22 1016.19 1015.09 1013.60 1011.91 1010.02 1008.15 1005.84 1003.24 1002.08 1002.65 1002.81 1003.32 1003.79 1004.05 1004.75 1005.39 1006.18 1006.49 1007.10
1031.05 1030.55 1029.36 1028.87 1027.89 1026.57 1025.96 1024.65 1023.05 1024.15 1025.11 1025.60 1025.83 1025.75 1025.49 1025.33 1025.31 1025.15 1024.94 1024.65 1024.28 1023.91 1023.36 1022.80 1021.94 1021.05 1020.26 1019.37 1018.45 1017.59 1016.62 1015.58 1014.20 1012.64 1010.73 1008.67 1006.76 1004.05 1001.60 1001.86 1002.15 1002.56 1003.29 1003.58 1003.93 1004.63 1005.20 1005.98 1006.62
1031.86 1031.48 1031.74 1030.62 1030.36 1028.78 1025.29 1024.20 1023.42 1024.09 1024.66 1025.03 1025.12 1025.08 1025.22 1025.21 1025.14 1025.10 1025.00 1024.75 1024.38 1024.04 1023.60 1023.14 1022.44 1021.57 1020.74 1020.02 1018.74 1017.74 1016.92 1015.77 1014.53 1012.94 1011.19 1009.17 1007.24 1005.08 1002.43 1001.05 1001.49 1001.71 1002.38 1002.93 1003.32 1003.87 1004.57 1005.33 1005.92
1032.58 1032.72 1032.32 1031.61 1030.45 1028.39 1025.43 1024.73 1023.05 1023.29 1023.43 1024.03 1024.32 1024.68 1024.82 1024.92 1024.83 1024.89 1024.89 1024.72 1024.51 1024.23 1023.76 1023.23 1022.66 1022.03 1021.08 1020.50 1019.22 1018.18 1017.27 1016.19 1014.87 1013.41 1011.74 1009.79 1007.78 1006.17 1003.77 1001.67 1001.08 1000.99 1001.56 1002.36 1002.87 1003.29 1003.95 1004.68 1005.48
1033.25 1032.97 1032.93 1032.43 1031.46 1029.87 1027.28 1023.37 1022.12 1022.18 1022.65 1023.28 1023.77 1024.10 1024.29 1024.43 1024.50 1024.50 1024.60 1024.54 1024.44 1024.11 1023.76 1023.25 1022.65 1022.08 1021.09 1020.63 1019.64 1018.68 1017.52 1016.43 1015.21 1013.84 1012.54 1010.62 1008.56 1006.75 1005.18 1003.14 1001.90 1001.32 1001.47 1002.02 1002.51 1002.98 1003.55 1003.99 1005.02
1033.29 1032.98 1032.74 1032.15 1032.04 1030.88 1029.31 1023.96 1022.31 1022.48 1022.82 1023.21 1023.49 1023.63 1023.63 1023.74 1023.87 1024.08 1024.21 1024.24 1024.05 1023.85 1023.62 1023.27 1022.83 1022.26 1021.71 1021.11 1020.16 1019.23 1018.24 1016.99 1015.69 1014.30 1013.09 1011.48 1009.79 1007.99 1006.37 1004.68 1003.05 1002.06 1002.11 1002.29 1002.58 1002.95 1003.41 1003.81 1004.39
Wind_Speed
9 7 4 5 5 4 2 4 1 5 3 3 2 4 5 6 6 6 3 4 1 5 12 17 14 17 17 18 16 16 15 15 16 15 15 16 15 15 15 14 12 12 14 13 13 13 12 11 11
9 6 4 2 6 6 3 4 8 5 1 1 6 3 4 7 3 6 3 7 2 5 11 16 13 15 16 16 15 15 15 16 16 16 16 16 15 16 16 15 13 12 14 14 13 13 12 12 12
6 4 4 3 3 8 3 6 5 4 5 3 5 3 6 2 2 7 12 10 3 6 11 13 13 15 17 17 16 15 15 15 16 16 17 17 17 16 15 15 13 13 14 14 14 14 14 14 14
2 4 3 7 14 13 11 4 6 11 7 2 5 9 2 7 6 12 15 13 7 5 9 11 13 15 14 14 16 18 17 16 16 16 17 17 16 15 15 15 14 14 14 15 16 15 15 14 13
1 2 6 8 14 11 7 8 10 11 11 6 6 8 9 7 12 18 19 16 11 8 6 9 8 13 15 16 16 16 17 17 17 17 17 16 16 16 16 15 15 15 16 16 16 16 15 14 13
3 3 8 13 15 6 3 5 8 9 9 8 6 8 6 8 17 20 18 15 11 8 5 7 6 8 9 12 15 17 17 17 17 18 17 17 16 15 15 16 14 12 16 16 15 15 14 13 14
3 4 9 14 16 10 5 3 3 6 7 7 8 8 4 6 21 19 16 15 13 10 5 6 8 11 9 8 10 12 13 19 17 17 17 16 16 16 16 15 14 12 12 13 14 15 16 15 13
2 3 5 6 8 6 4 3 8 11 8 8 7 5 8 22 25 22 19 16 15 12 9 7 6 8 12 15 13 11 14 12 12 13 12 12 11 12 12 11 12 14 13 13 13 15 15 15 13
1 5 9 7 7 3 8 10 8 11 11 12 8 16 21 20 24 23 22 20 16 13 10 9 8 9 11 13 11 12 12 13 10 10 10 11 13 15 16 15 12 13 11 10 10 15 15 13 13
5 4 4 2 7 7 11 9 11 8 15 14 18 22 25 25 22 19 19 19 20 20 17 14 11 11 11 10 14 11 11 10 11 14 16 14 15 14 15 14 12 12 11 11 11 16 13 12 8
3 4 2 4 9 13 12 10 12 11 10 21 22 23 22 19 19 19 19 19 18 20 17 18 17 14 12 11 9 7 7 8 10 16 16 15 12 12 11 9 10 11 11 10 11 10 7 8 6
4 1 4 6 12 13 13 12 12 15 11 19 20 21 22 24 22 21 21 23 24 23 22 23 22 17 14 10 9 10 8 11 9 12 14 11 9 10 10 9 12 12 10 10 9 7 7 5 4
2 3 6 10 10 11 12 13 4 11 22 20 21 22 23 22 24 23 21 22 23 23 23 23 24 21 17 14 11 11 10 9 12 12 13 11 11 10 10 10 9 10 8 9 11 8 7 6 7
2 4 6 7 15 10 17 13 1 16 24 20 23 22 22 22 20 22 23 23 22 23 24 23 23 21 20 17 15 12 11 11 10 11 12 16 12 11 10 10 10 10 9 9 10 9 8 6 5
3 2 2 13 19 10 21 10 15 25 19 18 17 19 20 22 21 20 20 21 22 20 22 22 22 22 21 20 18 13 13 11 10 10 14 16 16 14 12 11 10 11 10 12 11 8 6 6 6
3 3 2 10 15 9 15 3 22 23 21 23 21 17 17 20 21 21 21 20 20 20 21 21 19 21 21 19 16 14 14 13 12 10 11 16 17 18 13 11 11 12 11 12 11 11 9 7 9
9 3 6 6 12 15 10 7 14 15 17 19 20 19 17 18 20 22 23 21 20 20 21 22 21 21 22 20 15 16 18 14 12 11 11 14 17 18 14 11 12 14 11 12 12 10 10 8 8
3 3 3 6 8 13 7 6 9 14 16 17 18 21 20 20 22 21 22 22 22 19 19 20 18 20 21 15 15 13 13 13 13 12 12 16 13 17 16 12 13 13 11 10 12 13 9 8 8
1 3 7 4 2 12 4 1 1 9 14 17 17 18 21 22 18 19 21 21 22 21 21 21 21 21 16 14 14 14 13 13 14 13 18 18 16 16 15 12 12 12 12 14 16 9 13 7 6
0 3 8 5 3 7 4 6 4 1 8 11 14 16 18 22 24 21 23 23 22 22 22 23 21 20 17 13 13 13 14 13 14 14 18 17 18 16 15 16 13 15 11 14 14 12 6 4 9
3 6 8 5 11 1 11 4 9 4 2 12 14 14 14 16 20 23 23 23 23 23 23 21 22 20 17 19 14 12 13 13 13 12 12 15 19 19 16 17 13 15 13 12 14 15 15 10 8
2 7 10 8 7 3 7 3 8 4 5 11 15 15 15 18 18 18 21 22 22 22 21 21 21 21 17 19 17 19 14 15 14 15 14 17 21 18 17 19 16 16 13 14 14 14 16 13 10
4 15 7 3 3 4 1 5 4 3 4 11 14 14 15 15 16 18 19 19 19 19 21 21 21 20 20 18 17 14 16 13 12 14 21 19 19 19 16 19 17 17 14 15 18 16 15 12 11
12 2 3 3 2 4 5 4 4 3 2 6 11 13 15 15 15 15 16 17 18 19 20 20 23 21 20 19 19 19 20 19 15 15 16 14 13 14 15 17 16 16 15 14 14 17 19 16 13
9 2 1 3 2 3 5 6 7 7 6 4 8 11 13 13 14 15 17 17 18 20 20 19 22 23 22 20 20 19 19 20 19 17 13 18 14 14 12 15 14 12 14 14 14 15 15 16 15
6 5 3 5 4 5 3 8 3 8 6 2 4 6 9 12 12 14 15 15 16 18 19 20 21 22 23 22 20 17 18 12 13 15 14 12 12 16 14 14 13 13 14 13 13 11 12 14 14
3 3 3 2 2 3 4 6 11 9 9 6 4 8 9 11 11 13 13 13 14 15 17 18 19 19 21 22 19 18 16 18 17 19 16 13 15 14 19 14 14 14 13 13 12 10 12 12 13
3 7 2 2 3 6 5 8 9 12 13 7 5 6 7 8 10 10 10 11 11 12 12 15 17 18 18 20 19 17 17 16 17 16 19 19 17 17 19 8 12 13 12 13 13 10 11 12 10
5 3 2 1 2 4 7 7 5 10 10 8 5 5 6 7 8 9 9 9 9 10 11 12 14 17 18 18 19 20 19 17 16 16 18 18 19 19 17 13 5 1 5 8 9 9 10 12 11
1 4 5 3 5 5 4 13 3 8 8 8 7 9 7 7 8 7 8 8 9 10 10 12 13 13 14 16 17 18 19 20 17 18 19 19 19 19 18 17 9 1 3 3 6 7 8 11 10
Wind_Direction
308 314 296 252 247 245 199 166 242 206 213 163 21 305 353 309 296 359 351 4 68 190 186 183 189 184 186 187 180 174 171 170 171 171 172 173 168 166 164 162 159 161 162 161 158 156 150 154 153
319 298 238 291 261 248 202 209 233 250 60 231 292 170 267 316 264 292 351 17 199 187 189 192 185 192 188 187 185 180 177 176 177 179 178 178 178 176 174 171 168 169 168 167 167 163 155 154 153
292 286 265 262 245 246 259 210 284 8 9 308 301 277 309 287 178 343 5 336 241 190 193 202 179 199 193 187 187 185 183 185 182 183 185 186 185 184 182 180 179 179 179 176 171 167 160 158 157
298 200 190 246 249 251 271 311 309 305 322 335 330 284 218 350 15 9 1 357 316 284 214 193 180 204 204 202 191 186 190 190 189 188 188 188 189 190 189 187 188 192 189 180 172 164 162 159 157
290 245 249 248 262 268 294 299 299 303 306 325 332 300 289 358 41 23 9 8 355 334 286 245 209 213 204 200 200 198 196 194 194 194 192 192 190 190 189 189 192 197 189 184 173 169 165 160 160
159 282 241 257 268 252 301 309 300 297 319 354 298 299 295 76 24 357 357 7 9 340 292 258 215 256 240 220 208 203 201 201 200 196 195 194 193 194 194 192 193 193 184 185 167 168 168 168 171
193 207 266 278 282 291 332 30 336 351 343 18 328 286 328 43 355 351 350 346 345 341 297 252 245 219 240 245 224 217 217 215 207 202 199 197 194 193 195 195 193 193 187 178 172 173 174 164 176
173 227 259 255 291 317 50 58 19 9 8 347 354 289 313 346 339 338 335 332 337 352 333 301 264 250 230 232 220 219 226 231 218 207 201 194 192 192 191 191 197 197 195 195 193 174 169 162 168
270 207 254 270 295 25 26 353 15 333 299 327 312 305 321 335 337 335 335 336 341 341 346 331 299 256 242 228 235 215 214 215 219 209 208 194 205 202 200 202 191 201 201 203 195 179 171 159 147
203 220 238 347 332 341 337 357 335 333 319 320 328 332 333 336 339 337 336 332 335 338 333 333 314 290 255 236 228 219 217 216 218 218 218 217 216 209 208 203 196 199 200 202 202 176 159 156 170
153 248 12 69 12 340 328 340 337 336 343 354 353 352 351 351 356 356 351 345 343 342 338 341 336 315 279 253 236 224 212 212 220 222 219 216 218 215 207 206 203 208 203 209 195 164 161 176 181
210 90 27 355 357 358 345 326 336 39 18 343 341 341 341 341 338 338 336 339 341 345 345 343 342 332 311 279 246 238 218 216 213 222 213 220 215 214 213 213 204 206 202 203 173 163 151 147 190
250 23 347 1 23 32 343 329 327 60 358 349 355 0 356 351 348 9 6 358 353 348 347 348 344 343 330 304 274 247 236 222 219 215 208 210 212 212 211 211 206 204 191 187 178 158 157 165 181
330 308 22 41 7 50 353 319 204 6 349 355 13 6 6 10 360 359 360 352 352 345 345 345 343 342 339 326 294 276 246 239 228 218 214 211 214 211 207 209 210 201 191 187 186 164 166 174 170
345 259 157 31 357 28 331 136 26 350 1 23 25 8 3 2 3 2 357 348 347 343 339 343 340 340 339 331 326 290 269 244 233 227 220 211 210 214 205 204 209 209 196 187 186 158 163 159 179
49 129 360 38 19 6 344 65 11 12 18 23 24 23 12 3 357 356 356 350 346 342 343 339 340 338 337 330 321 309 287 261 241 226 221 215 211 211 209 206 204 206 195 193 190 180 168 177 192
36 21 0 337 31 348 13 29 11 17 28 20 15 16 14 8 5 356 352 350 347 344 341 340 341 340 337 328 319 312 295 274 258 237 225 216 213 211 209 208 208 209 199 195 188 191 180 178 182
20 5 317 305 359 360 38 68 33 19 27 30 14 4 4 7 3 357 352 351 347 347 344 340 340 341 338 331 325 324 310 280 263 257 235 224 214 213 206 204 204 205 188 194 193 189 182 191 177
48 310 320 345 105 332 18 104 83 30 26 19 16 6 357 359 356 358 356 354 351 350 348 347 341 342 340 337 335 328 319 311 304 272 254 237 224 208 208 207 199 195 195 192 194 182 182 172 151
76 335 18 292 314 326 334 299 187 139 45 29 15 9 2 349 351 357 356 355 355 352 348 345 343 340 340 335 328 316 308 298 295 286 290 248 230 212 204 203 195 192 197 198 188 180 166 148 176
54 19 348 312 314 295 304 204 217 206 291 9 16 11 4 359 348 348 353 356 352 352 350 344 342 340 339 339 326 320 313 307 306 299 300 263 243 218 202 203 195 194 198 196 190 184 180 178 189
17 3 323 314 317 7 347 305 224 247 313 358 3 5 0 354 351 346 348 352 354 351 346 346 342 341 342 342 337 331 319 314 312 303 298 288 272 228 206 205 198 193 195 197 197 193 195 192 184
330 331 305 297 253 292 79 267 147 231 268 351 356 356 355 354 349 346 346 346 348 351 348 347 345 343 344 347 344 333 323 313 311 304 300 287 285 228 209 212 201 196 198 201 191 198 198 202 192
316 319 156 180 217 239 128 357 231 214 224 335 347 353 355 353 351 350 346 347 348 350 351 351 348 346 346 346 345 340 330 324 318 315 308 297 287 249 209 214 206 202 200 195 198 198 193 197 201
350 219 200 236 245 314 152 288 281 180 173 336 336 338 347 351 350 350 351 349 349 351 351 351 350 348 347 347 346 344 337 328 322 318 314 309 294 268 215 209 212 201 202 196 193 198 201 198 198
11 355 19 293 292 316 265 231 314 178 181 277 300 308 338 352 351 350 350 349 348 349 351 350 351 351 349 347 348 344 340 333 323 321 316 308 304 308 208 206 200 196 199 201 192 194 196 201 205
53 58 35 95 67 276 257 262 255 197 221 240 299 342 337 340 345 344 346 349 350 350 352 351 352 352 352 348 349 349 343 340 333 327 325 324 322 322 288 196 198 190 187 197 187 189 192 195 198
354 140 175 96 294 278 245 279 265 213 228 246 296 308 320 325 334 336 340 342 346 347 348 352 355 352 356 349 351 348 347 342 339 334 333 334 332 331 323 280 211 198 188 193 189 192 190 187 196
156 173 115 29 257 280 300 258 220 230 204 224 277 286 298 305 314 318 322 328 331 336 344 347 354 351 355 353 351 350 349 349 345 346 338 339 339 340 335 331 326 137 167 187 188 192 182 184 187
318 204 196 224 186 240 284 269 248 226 219 226 264 299 296 292 295 293 298 308 319 329 336 339 342 347 348 346 349 351 348 350 352 351 346 345 346 349 346 339 345 270 186 176 192 176 177 185 184